Location: Newark
(39.6867°N, 100.6772°W)
Time: 05:38:37
(UTC+00:00)

ISS - Pass Details

Date: 19 September 2019
Orbit: 411 x 421 km, 51.6° (Epoch: 20 October)

Event Time Altitude Azimuth Distance (km) Brightness Sun altitude
Rises 01:26:32 0° 197° (SSW) 2,327 0.1 -8.5°
Reaches altitude 10° 01:29:01 10° 178° (S) 1,469 -1.1 -8.9°
Maximum altitude 01:31:24 19° 131° (SE) 1,058 -2.2 -9.4°
Enters shadow 01:32:55 14° 98° (E) 1,243 -2.0 -9.7°
